TimePST,TemperatureF,Dew PointF,Humidity,Sea Level PressureIn,VisibilityMPH,Wind Direction,Wind SpeedMPH,Gust SpeedMPH,PrecipitationIn,Events,Conditions,WindDirDegrees,DateUTC
12:53 AM,32.0,28.9,88,30.05,10.0,SW,5.8,-,N/A,,Clear,220,2012-12-03 08:53:00
1:53 AM,32.0,28.9,88,30.06,10.0,South,6.9,-,N/A,,Clear,180,2012-12-03 09:53:00
2:53 AM,30.0,27.0,88,30.09,10.0,Calm,Calm,-,N/A,,Clear,0,2012-12-03 10:53:00
4:53 AM,28.0,26.1,92,30.12,10.0,East,3.5,-,N/A,,Clear,100,2012-12-03 12:53:00
5:53 AM,26.1,24.1,92,30.15,10.0,Calm,Calm,-,N/A,,Clear,0,2012-12-03 13:53:00
6:00 AM,26.6,24.8,93,30.10,10.0,Calm,Calm,-,N/A,,Partly Cloudy,0,2012-12-03 14:00:00
7:53 AM,27.0,24.1,89,30.20,10.0,Calm,Calm,-,N/A,,Mostly Cloudy,0,2012-12-03 15:53:00
8:53 AM,30.9,27.0,85,30.19,10.0,Calm,Calm,-,N/A,,Mostly Cloudy,0,2012-12-03 16:53:00
9:53 AM,36.0,30.9,82,30.19,10.0,SSE,6.9,-,N/A,,Mostly Cloudy,150,2012-12-03 17:53:00
10:53 AM,39.9,30.9,70,30.17,10.0,SSE,9.2,-,N/A,,Mostly Cloudy,160,2012-12-03 18:53:00
11:53 AM,39.9,32.0,73,30.14,10.0,South,5.8,-,N/A,,Mostly Cloudy,180,2012-12-03 19:53:00
12:53 PM,43.0,28.0,56,30.12,10.0,South,8.1,-,N/A,,Mostly Cloudy,170,2012-12-03 20:53:00
1:53 PM,44.1,28.9,55,30.12,10.0,South,6.9,-,N/A,,Mostly Cloudy,170,2012-12-03 21:53:00
2:53 PM,44.1,30.9,60,30.11,10.0,SE,3.5,-,N/A,,Mostly Cloudy,130,2012-12-03 22:53:00
3:53 PM,42.1,32.0,67,30.10,10.0,South,8.1,-,N/A,,Mostly Cloudy,170,2012-12-03 23:53:00
4:53 PM,39.9,30.9,70,30.09,10.0,South,9.2,-,N/A,,Mostly Cloudy,170,2012-12-04 00:53:00
5:53 PM,39.9,28.9,65,30.09,7.0,SSE,12.7,-,N/A,,Overcast,160,2012-12-04 01:53:00
6:53 PM,42.1,26.1,53,30.06,7.0,SSE,13.8,-,N/A,,Overcast,150,2012-12-04 02:53:00
7:49 PM,39.2,30.2,70,30.03,7.0,South,10.4,-,0.00,Rain,Light Rain,180,2012-12-04 03:49:00
7:53 PM,39.9,30.9,70,30.06,7.0,SSE,10.4,-,0.00,Rain,Light Rain,160,2012-12-04 03:53:00
8:53 PM,42.1,28.9,60,30.03,7.0,South,21.9,28.8,0.00,Rain,Light Rain,190,2012-12-04 04:53:00
10:53 PM,42.1,32.0,67,29.98,10.0,South,18.4,28.8,0.00,Rain,Light Rain,190,2012-12-04 06:53:00
11:53 PM,37.9,32.0,79,30.01,9.0,South,19.6,27.6,0.04,Rain,Rain,190,2012-12-04 07:53:00